Powrót do katalogu

ONEWEB-0608

AktywnyŁącznośćPO
NORAD 54672·PAYLOAD·🇬🇧 United Kingdom

Wystrzelony Dec 8, 2022 z Cape Canaveral Space Force Station

Loading…

Następne Przeloty (najbliższe 24 godziny)

TLE

ŚwieżeSource: CelesTrak SupGP

Epoka: Sep 14, 2026, 13:17 UTC

1 54672C 22166AG  26257.55398565 -.00001273  00000+0 -30863-2 0  2572
2 54672  87.9283 226.1847 0002389  94.6509  17.8361 13.21828017    18

Śledź ONEWEB-0608 w czasie rzeczywistym z AllMySat

Download on the App Store